Lid_Strength_Index
-1 1 -1 1 6 6 9 9 7 8 7 6 5 5 5 5 7 8 1 -0 -1 -1 -1 -2 -1 -2 -2 -1 -2 -2 -2 -2 -2 -2 -2 -2 -1 -2 -2 -2 -2 -2 -2 -2 -2 -2 -2 -2 -2
1 2 1 3 8 10 8 8 8 7 5 5 5 5 5 6 4 3 2 -0 -1 -1 -1 -1 -1 -1 -2 -2 -2 -2 -2 -2 -2 -2 -2 -2 -1 -1 -2 -2 -2 -2 -2 -2 -2 -2 -2 -2 -2
2 3 3 5 7 10 9 8 7 6 5 5 5 4 5 6 3 2 0 -0 -1 -1 -1 -1 -1 -1 -2 -2 -2 -2 -2 -2 -2 -2 -2 -2 -2 -2 -2 -2 -2 -2 -2 -2 -2 -2 -2 -2 -2
1 3 4 7 9 8 8 7 6 6 6 6 5 6 4 2 2 1 -0 -1 -1 -1 -1 -1 -1 -2 -2 -2 -2 -2 -2 -2 -2 -2 -2 -2 -2 -2 -2 -2 -2 -2 -2 -2 -2 -3 -2 -2 -2
2 3 6 8 8 8 7 7 5 6 6 6 5 6 5 2 2 0 0 -0 -0 -1 -1 -1 -1 -2 -1 -2 -2 -2 -2 -2 -2 -2 -2 -2 -2 -2 -2 -3 -2 -2 -2 -2 -2 -2 -2 -2 -2
4 4 8 9 9 8 7 6 5 6 7 6 6 5 5 1 1 1 -0 -0 -1 -0 -1 -1 0 -0 -1 -1 -1 -1 -2 -2 -2 -2 -2 -2 -2 -2 -2 -2 -2 -2 -2 -2 -1 -1 -1 -2 -2
5 6 8 8 9 8 7 6 6 6 7 6 4 6 4 3 1 0 -0 -0 -1 -1 -1 -1 -1 -1 1 -0 -0 -1 -1 -2 -2 -2 -2 -2 -2 -2 -3 -2 -1 -1 -2 -2 -1 -0 -0 -1 -1
4 5 8 8 9 8 7 6 6 6 6 5 4 6 6 2 1 0 0 0 -0 -1 -1 -1 -1 -1 -1 -2 1 0 -0 -1 -1 -1 -1 -1 -2 -2 -2 -1 -2 -1 -1 -0 0 1 1 -0 -0
6 7 8 8 9 8 7 7 7 6 6 6 5 6 4 1 1 1 1 1 1 0 -0 -1 -1 -1 -1 -1 -0 1 1 0 0 -0 0 0 -2 -2 -1 0 -0 -0 0 0 1 1 1 1 1
6 7 8 7 7 7 7 7 7 7 7 6 6 5 5 2 2 3 3 3 2 1 0 -0 -1 -1 -1 -1 -2 -2 -2 -2 -2 -2 -2 -2 -2 -2 -1 1 1 0 0 1 1 2 3 2 1
8 8 9 8 7 7 7 8 7 7 8 6 6 5 5 3 3 3 2 2 2 1 0 -0 -1 -1 -1 -1 -1 -1 -2 -2 -2 -1 -2 -2 -1 -1 -1 -0 1 1 2 2 2 2 2 2 2
9 8 8 7 7 7 8 7 8 7 6 6 5 5 5 3 3 3 3 2 2 1 1 -0 -0 2 0 -0 -1 -1 -1 -2 -1 -1 -2 -1 -1 -1 -1 -0 1 2 1 1 1 2 3 2 2
8 8 8 7 7 7 8 8 7 8 5 6 7 7 5 4 3 2 2 1 1 1 1 2 1 3 2 -0 0 -0 -1 -1 -1 -1 -2 -1 -1 -0 -0 -0 1 2 1 1 2 3 3 4 4
8 8 8 7 7 7 8 8 8 6 6 7 7 6 6 5 3 2 2 2 2 1 1 3 3 2 2 1 -1 -0 -0 -1 -1 -1 -1 -1 -1 -1 0 0 0 2 2 2 3 5 6 7 6
8 9 8 8 7 8 7 9 9 6 7 7 7 6 6 6 4 3 2 2 1 1 2 4 3 3 2 1 1 -1 -1 -1 -1 -1 -1 -1 -1 -1 -0 1 1 3 3 3 5 6 8 9 9
8 8 10 8 8 8 8 10 7 8 8 7 6 6 6 6 6 4 2 1 1 1 3 4 5 4 3 2 1 1 -1 -1 -1 -1 -1 -1 -1 -1 0 2 3 3 5 5 6 7 9 10 10
9 11 11 9 8 9 9 9 7 8 8 7 7 6 6 6 6 5 4 3 2 2 3 4 4 4 4 3 3 1 0 -0 -0 -1 0 -0 1 1 2 3 3 3 4 5 6 8 10 11 11
11 11 11 10 9 10 9 10 8 7 8 7 6 6 6 6 6 5 5 4 3 3 4 3 3 3 2 2 1 1 0 1 2 2 3 2 2 2 2 4 4 4 5 6 7 10 11 11 11
10 11 11 10 10 10 9 9 8 7 7 7 7 6 6 6 5 5 5 5 5 4 5 5 4 3 3 2 3 3 3 3 5 5 5 4 4 4 4 5 6 5 6 7 8 11 12 12 11
10 11 11 9 10 10 10 10 8 8 7 7 6 6 6 5 5 5 6 6 6 6 5 5 5 4 3 3 3 2 2 3 3 5 7 6 5 5 5 6 6 5 6 8 9 11 12 11 11
10 11 11 11 11 10 11 11 9 8 8 7 7 6 6 6 5 5 6 6 6 6 6 6 5 4 3 3 2 4 4 5 8 7 8 8 7 6 6 6 7 6 7 9 10 10 9 11 11
12 10 10 11 12 13 11 15 11 9 9 9 7 6 6 6 6 6 5 6 6 6 6 6 5 5 3 3 4 5 4 5 6 8 7 9 8 8 8 8 8 8 8 8 9 9 8 9 11
11 10 10 11 11 12 12 14 12 11 11 9 7 6 6 5 5 6 6 6 6 6 6 6 6 5 4 3 4 4 4 4 6 6 9 11 11 10 9 9 10 9 8 8 7 8 8 8 9
10 10 11 11 11 15 12 13 13 11 10 9 8 7 6 6 6 6 6 7 7 7 7 6 6 6 5 4 4 4 4 5 8 8 9 11 11 11 12 12 11 9 8 7 7 8 9 8 8
10 10 14 15 16 16 13 14 12 10 10 9 8 7 7 7 7 7 7 8 8 8 8 7 7 7 5 5 5 5 4 5 6 9 9 11 11 11 11 13 13 12 10 8 8 9 9 9 9
10 10 13 18 16 15 15 16 12 9 9 8 8 8 7 8 7 7 6 7 8 8 8 7 7 7 6 6 6 5 4 6 6 7 7 9 9 8 10 13 14 13 12 10 10 10 10 11 11
11 13 10 13 17 15 14 12 10 10 10 9 9 8 7 7 7 7 7 7 8 8 8 8 7 7 6 7 6 6 5 7 7 8 7 7 7 10 13 15 15 15 14 12 12 12 13 13 13
10 9 13 13 18 18 15 14 13 11 9 9 9 8 8 7 7 7 7 8 8 8 8 8 7 7 7 7 6 6 7 7 7 9 9 10 10 13 15 16 16 15 15 13 13 14 14 14 14
11 12 12 12 13 16 16 14 10 10 9 9 8 8 8 7 7 7 7 8 9 8 8 8 8 8 8 8 7 7 8 8 9 11 11 12 13 16 16 17 16 16 16 14 14 14 14 15 15
11 11 11 14 15 14 14 14 10 9 9 9 8 8 8 8 8 7 8 9 9 9 9 8 8 8 8 8 8 8 9 9 10 12 12 13 15 15 16 17 17 17 17 15 15 15 15 16 16